DW8463 Weather Reports


Display with metric or nautical units.
time (UTC)temp
F
wind
direction
speed
MPH
gust
MPH
rain 1hr
in
rain 24hr
in
rain mn
in
humidity
%
barometer
mb
20210615033304 63 17 0.0 0.0 0.00 0.00 0.00 32 1016.3
20210615032804 63 17 0.0 0.0 0.00 0.00 0.00 32 1016.3
20210615032305 63 17 0.0 0.0 0.00 0.00 0.00 32 1016.3
20210615031804 64 17 0.0 0.0 0.00 0.00 0.00 32 1016.2
20210615031304 64 17 0.0 0.0 0.00 0.00 0.00 32 1016.1
20210615030804 64 17 0.0 0.0 0.00 0.00 0.00 32 1016.2
20210615030304 65 17 0.0 0.0 0.00 0.00 0.00 32 1016.1
20210615025805 65 17 0.0 0.0 0.00 0.00 0.00 33 1016.0
20210615025305 65 17 0.0 0.0 0.00 0.00 0.00 33 1016.0
20210615024804 66 17 0.0 0.0 0.00 0.00 0.00 33 1015.8
20210615024304 66 17 0.0 0.0 0.00 0.00 0.00 33 1015.8
20210615023805 67 17 0.0 0.0 0.00 0.00 0.00 33 1015.8
20210615023304 67 17 0.0 0.0 0.00 0.00 0.00 33 1015.7
20210615022805 68 17 0.0 0.0 0.00 0.00 0.00 33 1015.7
20210615022306 68 17 0.0 0.0 0.00 0.00 0.00 33 1015.7
20210615021804 69 17 0.0 0.0 0.00 0.00 0.00 33 1015.5
20210615021304 69 17 0.0 0.0 0.00 0.00 0.00 33 1015.6
20210615020804 69 17 0.0 0.0 0.00 0.00 0.00 33 1015.5
20210615020304 70 17 0.0 0.0 0.00 0.00 0.00 33 1015.5
20210615015804 70 17 0.0 0.0 0.00 0.00 0.00 24 1015.5
20210615015305 71 17 0.0 0.0 0.00 0.00 0.00 24 1015.5
20210615014804 72 17 0.0 0.0 0.00 0.00 0.00 24 1015.4
20210615014304 72 17 0.0 0.0 0.00 0.00 0.00 24 1015.4
20210615013803 73 17 0.0 0.0 0.00 0.00 0.00 24 1015.3
20210615013304 73 17 0.0 0.0 0.00 0.00 0.00 24 1015.3
20210615012804 75 17 0.0 0.0 0.00 0.00 0.00 24 1015.4
20210615012305 76 17 0.0 0.0 0.00 0.00 0.00 24 1015.2
20210615011804 76 17 0.0 0.0 0.00 0.00 0.00 24 1015.2
20210615011304 77 17 1.0 3.0 0.00 0.00 0.00 24 1015.1
20210615010804 77 307 0.0 1.0 0.00 0.00 0.00 24 1015.1
20210615010304 77 326 0.0 5.0 0.00 0.00 0.00 24 1015.2
20210615005804 78 330 0.0 7.0 0.00 0.00 0.00 21 1015.2
20210615005305 78 356 0.0 3.0 0.00 0.00 0.00 21 1015.1
20210615004804 78 343 0.0 5.0 0.00 0.00 0.00 21 1015.1
20210615004305 79 332 1.0 3.0 0.00 0.00 0.00 21 1015.1
20210615003804 79 341 1.0 5.0 0.00 0.00 0.00 21 1015.0
20210615003305 79 358 2.0 8.0 0.00 0.00 0.00 21 1015.0
20210615002804 80 358 3.0 8.0 0.00 0.00 0.00 21 1015.0
20210615002306 80 17 1.0 7.0 0.00 0.00 0.00 21 1015.0
20210615001804 80 0 1.0 9.0 0.00 0.00 0.00 21 1015.0
20210615001303 81 352 1.0 8.0 0.00 0.00 0.00 21 1014.9
20210615000804 81 10 1.0 5.0 0.00 0.00 0.00 21 1014.9
20210615000304 81 342 2.0 10.0 0.00 0.00 0.00 21 1014.9
20210614235805 81 333 3.0 12.0 0.00 0.00 0.00 21 1014.9
20210614235305 81 341 3.0 9.0 0.00 0.00 0.00 21 1014.9
20210614234804 82 358 1.0 7.0 0.00 0.00 0.00 21 1014.8
20210614234304 82 328 1.0 5.0 0.00 0.00 0.00 21 1014.7
20210614233805 81 4 3.0 12.0 0.00 0.00 0.00 21 1014.7
20210614233304 82 328 1.0 10.0 0.00 0.00 0.00 21 1014.7
20210614232804 82 356 3.0 13.0 0.00 0.00 0.00 21 1014.7
20210614232305 83 3 1.0 10.0 0.00 0.00 0.00 21 1014.7
20210614231804 83 11 3.0 12.0 0.00 0.00 0.00 21 1014.6
20210614231304 83 353 3.0 12.0 0.00 0.00 0.00 21 1014.7
20210614230805 83 334 3.0 10.0 0.00 0.00 0.00 21 1014.6
20210614230304 83 8 4.0 12.0 0.00 0.00 0.00 21 1014.6
20210614225804 83 356 3.0 12.0 0.00 0.00 0.00 21 1014.6
20210614225305 83 327 6.0 16.0 0.00 0.00 0.00 21 1014.7
20210614224804 83 8 3.0 14.0 0.00 0.00 0.00 21 1014.6
20210614224304 83 340 5.0 12.0 0.00 0.00 0.00 21 1014.7
20210614223804 84 4 2.0 12.0 0.00 0.00 0.00 21 1014.6
20210614223304 84 349 2.0 10.0 0.00 0.00 0.00 21 1014.5
20210614222804 83 325 2.0 10.0 0.00 0.00 0.00 21 1014.6
20210614222305 84 9 5.0 15.0 0.00 0.00 0.00 21 1014.6
20210614221804 84 0 3.0 13.0 0.00 0.00 0.00 21 1014.5
20210614221304 84 21 1.0 12.0 0.00 0.00 0.00 21 1014.5
20210614220804 84 351 5.0 12.0 0.00 0.00 0.00 21 1014.5
20210614220304 84 16 3.0 12.0 0.00 0.00 0.00 21 1014.4
20210614215804 84 2 5.0 17.0 0.00 0.00 0.00 20 1014.4
20210614215306 84 14 6.0 14.0 0.00 0.00 0.00 20 1014.5
20210614214804 84 341 6.0 13.0 0.00 0.00 0.00 20 1014.4
20210614214304 84 15 5.0 16.0 0.00 0.00 0.00 20 1014.4
20210614213804 84 344 5.0 12.0 0.00 0.00 0.00 20 1014.5
20210614213304 84 14 6.0 15.0 0.00 0.00 0.00 20 1014.6
20210614212804 84 344 5.0 12.0 0.00 0.00 0.00 20 1014.6
20210614212305 84 327 5.0 12.0 0.00 0.00 0.00 20 1014.6
20210614211804 84 27 3.0 12.0 0.00 0.00 0.00 20 1014.7
20210614211304 84 8 4.0 17.0 0.00 0.00 0.00 20 1014.7
20210614210804 84 324 4.0 15.0 0.00 0.00 0.00 20 1014.7
20210614210304 84 319 7.0 15.0 0.00 0.00 0.00 20 1014.6
20210614205805 84 349 9.0 15.0 0.00 0.00 0.00 20 1014.7
20210614205305 84 8 6.0 16.0 0.00 0.00 0.00 20 1014.7
20210614204805 84 347 5.0 15.0 0.00 0.00 0.00 20 1014.7
20210614204305 84 354 6.0 14.0 0.00 0.00 0.00 20 1014.7
20210614203804 84 348 4.0 14.0 0.00 0.00 0.00 20 1014.7
20210614203304 84 322 5.0 13.0 0.00 0.00 0.00 20 1014.6
20210614202804 84 351 5.0 16.0 0.00 0.00 0.00 20 1014.6
20210614202305 84 336 6.0 15.0 0.00 0.00 0.00 20 1014.6
20210614201804 84 353 5.0 14.0 0.00 0.00 0.00 20 1014.6
20210614201304 84 340 7.0 16.0 0.00 0.00 0.00 20 1014.6
20210614200804 84 302 2.0 14.0 0.00 0.00 0.00 20 1014.7
20210614200305 84 343 5.0 12.0 0.00 0.00 0.00 20 1014.7
20210614195804 84 8 5.0 12.0 0.00 0.00 0.00 23 1014.7
20210614195306 83 2 5.0 16.0 0.00 0.00 0.00 23 1014.7
20210614194805 84 320 10.0 17.0 0.00 0.00 0.00 23 1014.7
20210614194304 84 8 3.0 16.0 0.00 0.00 0.00 23 1014.7
20210614193804 84 3 6.0 15.0 0.00 0.00 0.00 23 1014.7
20210614193304 84 300 9.0 14.0 0.00 0.00 0.00 23 1014.7
20210614192805 83 322 1.0 14.0 0.00 0.00 0.00 23 1014.7
20210614192305 83 319 3.0 14.0 0.00 0.00 0.00 23 1014.7
20210614191804 84 311 2.0 17.0 0.00 0.00 0.00 23 1014.8
20210614191304 83 323 6.0 16.0 0.00 0.00 0.00 23 1014.8
20210614190804 83 339 3.0 12.0 0.00 0.00 0.00 23 1014.8
20210614190304 83 309 9.0 17.0 0.00 0.00 0.00 23 1014.9
20210614185804 83 349 3.0 13.0 0.00 0.00 0.00 26 1014.7
20210614185306 83 303 4.0 13.0 0.00 0.00 0.00 26 1014.9
20210614184804 83 327 3.0 9.0 0.00 0.00 0.00 26 1014.8
20210614184304 83 300 3.0 10.0 0.00 0.00 0.00 26 1014.9
20210614183804 83 284 3.0 12.0 0.00 0.00 0.00 26 1014.9
20210614183304 82 323 5.0 12.0 0.00 0.00 0.00 26 1015.0
20210614182804 82 355 3.0 9.0 0.00 0.00 0.00 26 1015.0
20210614182305 83 303 5.0 13.0 0.00 0.00 0.00 26 1015.1
20210614181804 83 324 3.0 8.0 0.00 0.00 0.00 26 1015.1
20210614181304 82 327 3.0 15.0 0.00 0.00 0.00 26 1015.2
20210614180804 82 309 7.0 16.0 0.00 0.00 0.00 26 1015.3
20210614180305 82 344 4.0 12.0 0.00 0.00 0.00 26 1015.3
20210614175804 82 313 1.0 8.0 0.00 0.00 0.00 26 1015.3
20210614175305 82 299 1.0 9.0 0.00 0.00 0.00 26 1015.4
20210614174804 82 348 4.0 12.0 0.00 0.00 0.00 26 1015.5
20210614174304 82 321 3.0 8.0 0.00 0.00 0.00 26 1015.5
20210614173804 82 309 2.0 14.0 0.00 0.00 0.00 26 1015.5
20210614173305 82 9 5.0 12.0 0.00 0.00 0.00 26 1015.5
20210614172804 82 1 2.0 9.0 0.00 0.00 0.00 26 1015.5
20210614172305 81 331 1.0 8.0 0.00 0.00 0.00 26 1015.5
20210614171804 82 278 2.0 12.0 0.00 0.00 0.00 26 1015.6
20210614171304 81 301 3.0 12.0 0.00 0.00 0.00 26 1015.6
20210614170804 81 321 5.0 9.0 0.00 0.00 0.00 26 1015.6
20210614170304 81 358 1.0 9.0 0.00 0.00 0.00 26 1015.6
20210614165804 81 348 5.0 12.0 0.00 0.00 0.00 27 1015.6
20210614165306 80 327 2.0 8.0 0.00 0.00 0.00 27 1015.7
20210614164804 80 331 3.0 12.0 0.00 0.00 0.00 27 1015.7
20210614164305 80 340 3.0 16.0 0.00 0.00 0.00 27 1015.7
20210614163804 80 330 5.0 12.0 0.00 0.00 0.00 27 1015.8
20210614163304 80 287 2.0 7.0 0.00 0.00 0.00 27 1015.8
20210614162804 80 325 6.0 12.0 0.00 0.00 0.00 27 1015.8
20210614162306 80 296 0.0 7.0 0.00 0.00 0.00 27 1015.9
20210614161804 80 337 3.0 14.0 0.00 0.00 0.00 27 1016.0
20210614161304 80 339 5.0 12.0 0.00 0.00 0.00 27 1016.0
20210614160804 80 3 2.0 7.0 0.00 0.00 0.00 27 1016.0
20210614160304 79 308 4.0 9.0 0.00 0.00 0.00 27 1016.1
20210614155804 79 340 3.0 8.0 0.00 0.00 0.00 33 1016.0
20210614155305 79 7 2.0 10.0 0.00 0.00 0.00 33 1016.1
20210614154804 78 290 1.0 7.0 0.00 0.00 0.00 33 1016.1
20210614154304 78 333 4.0 10.0 0.00 0.00 0.00 33 1016.1
20210614153804 78 336 2.0 7.0 0.00 0.00 0.00 33 1016.1
20210614153304 78 320 1.0 8.0 0.00 0.00 0.00 33 1016.1
20210614152804 78 332 2.0 5.0 0.00 0.00 0.00 33 1016.2
20210614152306 78 313 3.0 9.0 0.00 0.00 0.00 33 1016.2
20210614151804 78 311 4.0 10.0 0.00 0.00 0.00 33 1016.2
20210614151304 77 350 3.0 6.0 0.00 0.00 0.00 33 1016.2
20210614150804 77 298 3.0 8.0 0.00 0.00 0.00 33 1016.3
20210614150305 77 292 2.0 6.0 0.00 0.00 0.00 33 1016.3
20210614145804 76 323 1.0 7.0 0.00 0.00 0.00 33 1016.3
20210614145306 76 309 0.0 3.0 0.00 0.00 0.00 33 1016.3
20210614144804 76 306 2.0 7.0 0.00 0.00 0.00 33 1016.3
20210614144304 75 158 0.0 2.0 0.00 0.00 0.00 33 1016.4
20210614143804 75 5 1.0 3.0 0.00 0.00 0.00 33 1016.4
20210614143304 75 340 2.0 6.0 0.00 0.00 0.00 33 1016.4
20210614142804 74 326 3.0 8.0 0.00 0.00 0.00 33 1016.5
20210614142305 74 272 3.0 8.0 0.00 0.00 0.00 33 1016.6
20210614141804 74 296 1.0 3.0 0.00 0.00 0.00 33 1016.5
20210614141304 73 299 3.0 7.0 0.00 0.00 0.00 33 1016.6
20210614140804 73 326 3.0 7.0 0.00 0.00 0.00 33 1016.6
20210614140304 73 336 3.0 8.0 0.00 0.00 0.00 36 1016.6
20210614135805 73 240 0.0 5.0 0.00 0.00 0.00 52 1016.6
20210614135306 72 299 0.0 3.0 0.00 0.00 0.00 52 1016.6
20210614134804 72 322 1.0 5.0 0.00 0.00 0.00 52 1016.6
20210614134304 71 327 1.0 6.0 0.00 0.00 0.00 52 1016.5
20210614133805 71 301 1.0 6.0 0.00 0.00 0.00 52 1016.5
20210614133304 71 279 0.0 2.0 0.00 0.00 0.00 52 1016.5
20210614132804 70 261 1.0 3.0 0.00 0.00 0.00 52 1016.5
20210614132305 70 263 1.0 5.0 0.00 0.00 0.00 52 1016.6
20210614131804 70 291 1.0 3.0 0.00 0.00 0.00 52 1016.6
20210614131304 69 266 0.0 3.0 0.00 0.00 0.00 52 1016.6
20210614130804 68 265 0.0 0.0 0.00 0.00 0.00 52 1016.5
20210614130304 67 265 0.0 2.0 0.00 0.00 0.00 56 1016.5
20210614125804 66 245 0.0 2.0 0.00 0.00 0.00 76 1016.4
20210614125305 66 242 0.0 1.0 0.00 0.00 0.00 76 1016.4
20210614124804 65 242 0.0 0.0 0.00 0.00 0.00 76 1016.3
20210614124304 64 240 0.0 0.0 0.00 0.00 0.00 76 1016.5
20210614123804 63 240 0.0 0.0 0.00 0.00 0.00 76 1016.4
20210614123305 62 240 0.0 0.0 0.00 0.00 0.00 76 1016.4
20210614122804 62 240 0.0 0.0 0.00 0.00 0.00 76 1016.3
20210614122306 61 240 0.0 0.0 0.00 0.00 0.00 76 1016.3
20210614121804 60 240 0.0 0.0 0.00 0.00 0.00 76 1016.3
20210614121304 60 240 0.0 0.0 0.00 0.00 0.00 76 1016.3
20210614120804 59 240 0.0 0.0 0.00 0.00 0.00 76 1016.3
20210614120304 58 240 0.0 0.0 0.00 0.00 0.00 76 1016.3
20210614115804 58 240 0.0 2.0 0.00 0.00 0.00 76 1016.2
20210614115306 57 238 0.0 0.0 0.00 0.00 0.00 76 1016.0
20210614114804 57 238 0.0 2.0 0.00 0.00 0.00 76 1016.0
20210614114304 56 126 0.0 0.0 0.00 0.00 0.00 76 1015.9
20210614113804 56 126 0.0 0.0 0.00 0.00 0.00 76 1015.9
20210614113304 55 126 0.0 0.0 0.00 0.00 0.00 76 1016.0
20210614112804 55 125 0.0 0.0 0.00 0.00 0.00 76 1016.2
20210614112305 55 122 0.0 0.0 0.00 0.00 0.00 76 1016.2
20210614111804 54 122 0.0 0.0 0.00 0.00 0.00 76 1016.1
20210614111304 54 122 0.0 0.0 0.00 0.00 0.00 76 1016.1
20210614110804 54 122 0.0 0.0 0.00 0.00 0.00 76 1016.1
20210614110304 54 122 0.0 0.0 0.00 0.00 0.00 76 1016.0
20210614105804 54 122 0.0 0.0 0.00 0.00 0.00 71 1016.0
20210614105305 54 38 0.0 0.0 0.00 0.00 0.00 71 1016.0
20210614104804 54 38 0.0 0.0 0.00 0.00 0.00 71 1016.0
20210614104304 54 38 0.0 0.0 0.00 0.00 0.00 71 1015.9
20210614103803 54 38 0.0 0.0 0.00 0.00 0.00 71 1015.8
20210614103304 54 38 0.0 0.0 0.00 0.00 0.00 71 1015.8
20210614102804 54 38 0.0 0.0 0.00 0.00 0.00 71 1015.5
20210614102305 54 38 0.0 0.0 0.00 0.00 0.00 71 1015.5
20210614101804 54 38 0.0 0.0 0.00 0.00 0.00 71 1015.5
20210614101304 54 38 0.0 0.0 0.00 0.00 0.00 71 1015.5
20210614100805 54 38 0.0 0.0 0.00 0.00 0.00 71 1015.5
20210614100304 54 38 0.0 0.0 0.00 0.00 0.00 71 1015.6
20210614095804 55 38 0.0 0.0 0.00 0.00 0.00 67 1015.5
20210614095305 55 38 0.0 0.0 0.00 0.00 0.00 67 1015.4
20210614094804 55 38 0.0 0.0 0.00 0.00 0.00 67 1015.3
20210614094304 55 38 0.0 0.0 0.00 0.00 0.00 67 1015.2
20210614093804 55 38 0.0 0.0 0.00 0.00 0.00 67 1015.1
20210614093304 55 38 0.0 0.0 0.00 0.00 0.00 67 1014.9
20210614092805 55 38 0.0 0.0 0.00 0.00 0.00 67 1015.0
20210614092305 55 38 0.0 0.0 0.00 0.00 0.00 67 1015.1
20210614091804 55 38 0.0 0.0 0.00 0.00 0.00 67 1015.0
20210614091305 56 38 0.0 0.0 0.00 0.00 0.00 67 1015.0
20210614090804 56 38 0.0 0.0 0.00 0.00 0.00 67 1015.0
20210614090304 56 38 0.0 0.0 0.00 0.00 0.00 67 1015.2
20210614085804 56 38 0.0 0.0 0.00 0.00 0.00 63 1015.2
20210614085305 56 38 0.0 0.0 0.00 0.00 0.00 63 1015.3
20210614084804 57 38 0.0 0.0 0.00 0.00 0.00 63 1015.3
20210614084304 57 38 0.0 0.0 0.00 0.00 0.00 63 1015.3
20210614083804 57 38 0.0 0.0 0.00 0.00 0.00 63 1015.4
20210614083304 57 38 0.0 0.0 0.00 0.00 0.00 63 1015.3
20210614082804 57 38 0.0 0.0 0.00 0.00 0.00 63 1015.2
20210614082305 58 38 0.0 0.0 0.00 0.00 0.00 63 1015.2
20210614081804 58 38 0.0 0.0 0.00 0.00 0.00 63 1015.1
20210614081304 59 38 0.0 0.0 0.00 0.00 0.00 63 1015.1
20210614080804 59 38 0.0 0.0 0.00 0.00 0.00 63 1015.1
20210614080304 59 38 0.0 0.0 0.00 0.00 0.00 61 1015.1
20210614075804 60 38 0.0 0.0 0.00 0.00 0.00 52 1015.1
20210614075305 60 38 0.0 0.0 0.00 0.00 0.00 52 1015.0
20210614074804 60 38 0.0 0.0 0.00 0.00 0.00 52 1014.9
20210614074304 61 38 0.0 0.0 0.00 0.00 0.00 52 1014.6
20210614073805 61 38 0.0 0.0 0.00 0.00 0.00 52 1014.5
20210614073304 61 38 0.0 0.0 0.00 0.00 0.00 52 1014.5
20210614072804 62 38 0.0 0.0 0.00 0.00 0.00 52 1014.4
20210614072305 62 38 0.0 0.0 0.00 0.00 0.00 52 1014.4
20210614071805 63 38 0.0 0.0 0.00 0.00 0.00 52 1014.4
20210614071304 63 38 0.0 0.0 0.00 0.00 0.00 52 1014.4
20210614070804 63 38 0.0 0.0 0.00 0.00 0.00 52 1014.3
20210614070304 64 38 0.0 0.0 0.00 0.00 0.00 52 1014.3
20210614065804 64 38 0.0 0.0 0.00 0.00 0.00 52 1014.3
20210614065305 64 38 0.0 0.0 0.00 0.00 0.00 52 1014.3
20210614064804 65 38 0.0 0.0 0.00 0.00 0.00 52 1014.3
20210614064304 67 38 0.0 0.0 0.00 0.00 0.00 52 1014.2
20210614063804 67 38 0.0 0.0 0.00 0.00 0.00 52 1014.2
20210614063304 67 14 0.0 3.0 0.00 0.00 0.00 52 1014.1
20210614062804 68 341 0.0 3.0 0.00 0.00 0.00 52 1014.0
20210614062305 68 21 0.0 3.0 0.00 0.00 0.00 52 1014.0
20210614061805 68 335 1.0 3.0 0.00 0.00 0.00 52 1014.0
20210614061304 68 358 2.0 5.0 0.00 0.00 0.00 52 1014.0
20210614060804 69 32 0.0 3.0 0.00 0.00 0.00 52 1013.9
20210614060304 69 336 2.0 7.0 0.00 0.00 0.00 52 1013.9
20210614055804 69 5 0.0 3.0 0.00 0.00 0.00 46 1013.8
20210614055305 69 5 1.0 5.0 0.00 0.00 0.00 46 1013.7
20210614054804 69 53 0.0 3.0 0.00 0.00 0.00 46 1013.6
20210614054304 70 355 0.0 1.0 0.00 0.00 0.00 46 1013.4
20210614053805 70 24 0.0 3.0 0.00 0.00 0.00 46 1013.3
20210614053304 70 345 1.0 9.0 0.00 0.00 0.00 46 1013.3
20210614052804 71 0 1.0 7.0 0.00 0.00 0.00 46 1013.2
20210614052305 71 2 2.0 8.0 0.00 0.00 0.00 46 1013.3
20210614051804 71 5 2.0 8.0 0.00 0.00 0.00 46 1013.2
20210614051304 71 356 1.0 5.0 0.00 0.00 0.00 46 1013.1
20210614050824 72 1 1.0 8.0 0.00 0.00 0.00 46 1013.1
20210614050304 72 355 2.0 3.0 0.00 0.00 0.00 43 1013.0
20210614045804 73 354 2.0 6.0 0.00 0.00 0.00 31 1013.0
20210614045305 73 13 5.0 12.0 0.00 0.00 0.00 31 1012.9
20210614044804 73 11 1.0 9.0 0.00 0.00 0.00 31 1013.0
20210614044304 73 354 3.0 8.0 0.00 0.00 0.00 31 1012.9
20210614043805 73 16 2.0 7.0 0.00 0.00 0.00 31 1012.8
20210614043304 74 346 2.0 5.0 0.00 0.00 0.00 31 1012.7
20210614042804 74 355 2.0 9.0 0.00 0.00 0.00 31 1012.6
20210614042306 74 327 2.0 6.0 0.00 0.00 0.00 31 1012.5
20210614041804 74 341 0.0 3.0 0.00 0.00 0.00 31 1012.5
20210614041305 75 2 0.0 3.0 0.00 0.00 0.00 31 1012.5
20210614040804 75 5 0.0 9.0 0.00 0.00 0.00 31 1012.4
20210614040304 76 355 2.0 9.0 0.00 0.00 0.00 31 1012.3
20210614035804 76 11 2.0 12.0 0.00 0.00 0.00 32 1012.3
20210614035305 76 334 2.0 12.0 0.00 0.00 0.00 32 1012.2
20210614034804 77 344 1.0 7.0 0.00 0.00 0.00 32 1012.1
20210614034305 77 4 3.0 8.0 0.00 0.00 0.00 32 1012.0
20210614033804 78 354 2.0 12.0 0.00 0.00 0.00 32 1012.0